Regional Weather Roundup
Issued by NWS

Home | Current Version | Previous Version | Graphics & Text | Print | Product List | Glossary On
Versions: 1 2 3 4 5 6 7 8 9 10 11 12 13 14 15 16 17 18 19 20 21 22 23 24 25 26 27 28 29 30 31 32 33 34 35 36 37 38 39 40 41 42 43 44 45 46 47 48 49 50
000
ASUS43 KDMX 231607
RWRIA

WEATHER ROUNDUP FOR IOWA
NATIONAL WEATHER SERVICE DES MOINES IA
1000 AM CST SUN NOV 23 2014

NOTE: "FAIR" INDICATES FEW OR NO CLOUDS BELOW 12,000 FEET WITH NO
SIGNIFICANT WEATHER AND/OR OBSTRUCTIONS TO VISIBILITY.

* - THESE STATIONS ARE NOT NWS STATIONS...THUS NOT UNDER NWS
QUALITY CONTROL.  THEY ALSO DO NOT REPORT WEATHER SUCH
AS PRECIPITATION OR FOG.

IAZ001>003-012>014-020>022-031>034-043>046-231700-
   NORTHWEST IOWA

CITY           SKY/WX    TMP DP  RH WIND       PRES   REMARKS
CARROLL *      CLOUDY    54  52  94 SW13      29.46F
CHEROKEE *     CLOUDY    46  45  93 NW6       29.48S
DENISON *      CLOUDY    54  54 100 SW8G15    29.44F
LE MARS *      SUNNY     45  39  81 NW7       29.53R
ORANGE CITY *  MOSUNNY   45  37  76 N10       29.50R
SHELDON *      MOSUNNY   43  41  93 NW8G14    29.49R
SIOUX CITY     CLOUDY    48  39  71 NW13      29.53R
SPENCER        CLOUDY    47  44  90 W13       29.46S
STORM LAKE *   CLOUDY    50  50 100 W16       29.46F FOG
$$

IAZ055>058-069>071-079>083-090>094-231700-
   SOUTHWEST IOWA

CITY           SKY/WX    TMP DP  RH WIND       PRES   REMARKS
ATLANTIC *     PTSUNNY   54  54 100 S6        29.46F FOG
AUDUBON *      DRIZZLE   54  48  82 S7        29.47F
CLARINDA *     FOG       54  54 100 S8        29.49F VSB 1
COUNCIL BLFS * CLOUDY    54  54 100 SW8       29.45F FOG
CRESTON *      FOG       50  50 100 S9        29.49F VSB 1/4
HARLAN  *      CLOUDY    54  54 100 SW9       29.50F
LAMONI         CLOUDY    51  51 100 SE7       29.49F FOG
RED OAK *      CLOUDY    54  54 100 S7        29.47F FOG
SHENANDOAH *   CLOUDY    54  54 100 S7        29.47F FOG
$$

IAZ047>049-059>061-072>074-084-231700-
   CENTRAL IOWA

CITY           SKY/WX    TMP DP  RH WIND       PRES   REMARKS
AMES           LGT RAIN  51  50  96 SE5       29.49F FOG
ANKENY *       CLOUDY    52  52 100 S6        29.50F
CHARITON *     CLOUDY    52  52 100 S9        29.50F FOG
DES MOINES     CLOUDY    53  50  89 S6        29.50F
GRINNELL*      LGT RAIN  50  48  93 SE9       29.52S
KNOXVILLE *    CLOUDY    52  50  93 S7        29.49F FOG
MARSHALLTOWN   LGT RAIN  50  50 100 SE7       29.50F FOG
PELLA *        RAIN      52  50  93 S9        29.52F
PERRY *        HVY RAIN  52  52 100 CALM      29.49F
$$

IAZ004>006-015-016-023>025-035-036-231700-
   NORTH CENTRAL IOWA

CITY           SKY/WX    TMP DP  RH WIND       PRES   REMARKS
ALGONA *       PTSUNNY   52  52 100 S14       29.45F
CLARION *      CLOUDY    52  52 100 S13       29.47S FOG
ESTHERVILLE    CLOUDY    49  48  97 SW8       29.44F FOG
FORT DODGE *   CLOUDY    52  48  87 S10       29.47F
MASON CITY     CLOUDY    50  50 100 S12       29.49F FOG
FOREST CITY *  CLOUDY    52  52 100 S9        29.46F
IOWA FALLS *   FOG       50  50 100 S10       29.49F VSB 3/4
$$

IAZ007>011-017>019-026>030-037>042-050>054-066-231700-
   NORTHEAST IOWA

CITY           SKY/WX    TMP DP  RH WIND       PRES   REMARKS
CEDAR RAPIDS   RAIN      49  49 100 SE9       29.54F FOG
CHARLES CITY * CLOUDY    50  50 100 S10       29.50F FOG
CLINTON *      CLOUDY    48  46  93 S12       29.63F
DECORAH *      CLOUDY    50  50 100 S10       29.52F FOG
DUBUQUE        RAIN      48  48 100 S14       29.58F FOG
MONTICELLO *   LGT RAIN  48  48 100 SE10      29.57F
OELWEIN *      CLOUDY    50  50 100 S16       29.53F FOG
WATERLOO       CLOUDY    50  50 100 S10       29.51F FOG
$$

IAZ064-065-067-068-078-231700-
   EAST CENTRAL IOWA

CITY           SKY/WX    TMP DP  RH WIND       PRES   REMARKS
DAVENPORT      LGT RAIN  50  48  93 S14       29.60F FOG
IOWA CITY      LGT RAIN  50  50 100 SE8       29.58F FOG
MT. PLEASANT * LGT RAIN  50  50 100 SE12      29.56F
MUSCATINE *    LGT RAIN  50  48  93 SE9       29.59F
QUAD CITIES    CLOUDY    50  48  93 SE13      29.60F FOG
$$

IAZ062-063-075>077-085>089-095>099-231700-
   SOUTHEAST IOWA

CITY           SKY/WX    TMP DP  RH WIND       PRES   REMARKS
BURLINGTON     LGT RAIN  50  49  96 SE9       29.57F FOG
FAIRFIELD *    LGT RAIN  50  50 100 SE12      29.54F
FORT MADISON * LGT RAIN  52  52 100 SE6       29.58F
KEOKUK *       CLOUDY    52  52 100 SE10      29.56F FOG
OSKALOOSA *    LGT RAIN  50  50 100 S10       29.52F
CENTERVILLE *  RAIN      50  50 100 SE10      29.52F
OTTUMWA        RAIN      51  49  92 SE12      29.52F FOG
WASHINGTON *   LGT RAIN  50  50 100 SE9       29.55F
$$

ABBREVIATIONS USED IN REMARKS
   TC - TEMPERATURES IN CELSIUS
  WCI - WIND CHILL INDEX
   HX - HEAT INDEX
  VSB - VISIBILITY
$$



USA.gov is the U.S. government's official web portal to all federal, state and local government web resources and services.